Flag for U.S.A. Weather past 2 weeks in Fairfax, Virginia, U.S.A.

Now
45 °F

Scattered clouds.


Feels Like: 45 °F
Forecast: 26 / 47 °F
Wind: No wind

Location: Washington-Dulles International Airport

Current Time: Mar 29, 2015 at 6:34:50 PM

Latest Report: Mar 29, 2015 at 5:52 PM


Visibility: 10 mi

Pressure: 30.23 "Hg

Humidity: 16%

Dew point: 2 °F

Location of FairfaxLocation

Historic Weather in Fairfax — Graph

°F

Fairfax temperature yesterday

Maximum temperature yesterday: 37 °F (at 12:52 AM)
Minimum temperature yesterday: 28 °F (at 6:52 AM)
Average temperature yesterday: 31 °F

Past Weeks' High & Low Weather Summary

 TemperatureHumidityPressure
High74 °F (Mar 26, 3:52 PM)97% (Mar 14, 8:52 PM)30.42 "Hg (Mar 14, 8:52 PM)
Low22 °F (Mar 29, 5:52 AM)19% (Mar 22, 4:52 PM)29.59 "Hg (Mar 26, 5:52 PM)
Average43 °F55%30.08 "Hg
* Reported Mar 14 4:52 PM — Mar 29 4:52 PM, Fairfax, Weather by CustomWeather, © 2015

Note: Actual official high and low records may vary slightly from our data, if they occured in-between our weather recording intervals... More about our weather records

Advertising

Fairfax weather history for previous 24 hours

 ConditionsComfort  
Time TempWeatherWind HumidityBarometerVisibility
4:52 PM
Sun, Mar 29
45 °FScattered clouds.3 mph19%30.26 "Hg10 mi
3:52 PM44 °FPassing clouds.3 mph20%30.28 "Hg10 mi
2:52 PM42 °FPassing clouds.6 mph22%30.32 "Hg10 mi
1:52 PM39 °FPassing clouds.5 mph25%30.35 "Hg10 mi
12:52 PM37 °FPassing clouds.3 mph27%30.37 "Hg10 mi
11:52 AM34 °FSunny.7 mph34%30.40 "Hg10 mi
10:52 AM32 °FSunny.10 mph35%30.42 "Hg10 mi
9:52 AM30 °FSunny.12 mph40%30.41 "Hg10 mi
8:52 AM27 °FSunny.14 mph45%30.40 "Hg10 mi
7:52 AM24 °FClear.5 mph50%30.39 "Hg10 mi
6:52 AM22 °FClear.5 mph50%30.37 "Hg10 mi
5:52 AM22 °FClear.6 mph52%30.33 "Hg10 mi
4:52 AM24 °FClear.10 mph46%30.32 "Hg10 mi
3:52 AM25 °FClear.13 mph42%30.30 "Hg10 mi
2:52 AM25 °FClear.10 mph42%30.29 "Hg10 mi
1:52 AM26 °FClear.14 mph37%30.29 "Hg10 mi
12:52 AM28 °FClear.18 mph34%30.27 "Hg10 mi
11:52 PM
Sat, Mar 28
28 °FClear.10 mph41%30.26 "Hg10 mi
10:52 PM28 °FClear.9 mph41%30.24 "Hg10 mi
9:52 PM28 °FClear.9 mph39%30.23 "Hg10 mi
8:52 PM29 °FPassing clouds.14 mph38%30.21 "Hg10 mi
7:52 PM30 °FPartly sunny.17 mph38%30.17 "Hg10 mi
6:52 PM31 °FPartly sunny.18 mph40%30.14 "Hg10 mi
Weather by CustomWeather, © 2015

See weather overviewHow to use our weather pages